DELTA 1 DEB, 10757

Orbit data source: Space-Track

DELTA 1 DEB, 10757 is space debris in SSO originally from a launch on Thu, 29 Jul 1976 UTC launched from the Air Force Western Test Range (AFWTR). Debris objects in space refer to the collection of defunct objects orbiting the Earth. Examples of debris include non-operational satellites, rocket bodies, and fragments generated from explosions, collisions, or faulty payload assembly.

Loading next visibility...
Identifier
10757, 1976-077BE
Orbit
SSO
Country
Flag of USUS
Related business
Manufacturer
Unknown
Mission
Spacecraft
Bus & Motor
Unknown
Mass
Unknown
Launch date (UTC)
1976-07-29 (50 years ago)
Launch vehicle
Unknown
Launch site
Air Force Western Test Range (AFWTR)
Object type
Payload
Rocket body
Debris
Shape & HBR
Unknown shape, 0.1 m
Radar Cross Section
Medium (>0.1 m² and <1 m²)

Expand to show TLE details & history
Last TLE update: 2 days ago

TLE from 2 days ago
0 DELTA 1 DEB
1 10757U 76077BE  26171.37832036  .00000232  00000-0  30787-2 0  9990
2 10757 101.9059 217.4551 0230740  41.5974 334.7793 12.00520857184074
Epoch: 2026-06-20T09:04Z
TLE epoch observation values (Epoch: 2026-06-20T09:04:46.879Z)
Latitude
14.86425°
Longitude
169.4738°
Altitude
1,512.939 km
Speed
7.183 km/s
True Right ascension
14h 17m 03s
True Declination
14° 47' 14"
Sunlit
Object was in daylight at epoch
Visualization orbit readout
Latitude
Unknown
Longitude
Unknown
Altitude
Unknown
Speed
Unknown
Apparent Right ascension
Unknown
Apparent Declination
Unknown
Sunlit
N/A
Visualization observer readout
Local Sidereal Time
05:24:07
Azimuth
Unknown
Elevation
Unknown
Doppler factor
Unknown
Orbital elements
Apogee altitude
1,861.993 km
Perigee altitude
1,490.304 km
Semi-major axis
8,054.285 km
Eccentricity
0.02307
Inclination
101.9059°
RAAN
217.4551°
Arg. of periapsis
41.5974°
True anomaly
333.62257°
Mean anomaly
334.7793°
Eccentric anomaly
334.20399°
Mean motion
3.00264 °/min
Orbital period
119.89 mins
BSTAR
0.0030787
Loading maneuver chart data...
Computing Atmospheric mass density...
Loading historical data...
Loading historical data...
Loading historical data...
Loading historical data...
Loading historical data...
Loading historical data...
Loading historical data...

Documentation

Showing up to 5 results
|